Location: Pasarilla del Rebollar
(40.6790°N, 5.0062°W)
Time: 11:40:15
(UTC+00:00)

AQUA - Pass Details

Date: 22 April 2026
Orbit: 685 x 688 km, 98.4° (Epoch: 15 May)

Event Time Altitude Azimuth Distance (km) Brightness Sun altitude
Rises 03:40:47 0° 18° (NNE) 3,059 8.0 -19.5°
Reaches altitude 10° 03:43:06 10° 23° (NNE) 2,139 7.2 -19.1°
Maximum altitude 03:47:40 53° 100° (E) 842 4.4 -18.4°
Enters shadow 03:51:50 12° 176° (S) 1,976 5.8 -17.8°
